TimeEDT,TemperatureF,Dew PointF,Humidity,Sea Level PressureIn,VisibilityMPH,Wind Direction,Wind SpeedMPH,Gust SpeedMPH,PrecipitationIn,Events,Conditions,WindDirDegrees,DateUTC
12:51 AM,61.0,37.0,41,30.15,10.0,SSE,9.2,-,N/A,,Mostly Cloudy,150,2013-04-28 04:51:00
1:51 AM,59.0,37.9,46,30.16,10.0,SSE,3.5,-,N/A,,Partly Cloudy,160,2013-04-28 05:51:00
2:51 AM,55.0,37.9,53,30.13,9.0,East,4.6,-,N/A,,Partly Cloudy,100,2013-04-28 06:51:00
3:51 AM,55.0,37.9,53,30.12,10.0,ESE,3.5,-,N/A,,Clear,120,2013-04-28 07:51:00
4:51 AM,54.0,39.0,57,30.10,10.0,ESE,5.8,-,N/A,,Mostly Cloudy,110,2013-04-28 08:51:00
5:51 AM,54.0,39.9,59,30.10,10.0,ESE,8.1,-,N/A,,Mostly Cloudy,120,2013-04-28 09:51:00
6:51 AM,55.9,39.9,55,30.09,10.0,ESE,9.2,-,N/A,,Overcast,110,2013-04-28 10:51:00
7:51 AM,57.0,41.0,55,30.08,10.0,ESE,11.5,-,N/A,,Overcast,120,2013-04-28 11:51:00
8:51 AM,59.0,41.0,51,30.08,10.0,ESE,11.5,-,N/A,,Overcast,120,2013-04-28 12:51:00
9:51 AM,59.0,43.0,55,30.09,7.0,SSE,9.2,-,N/A,,Overcast,150,2013-04-28 13:51:00
10:51 AM,54.0,48.9,83,30.10,3.0,SSE,8.1,-,0.04,Rain,Light Rain,160,2013-04-28 14:51:00
11:51 AM,54.0,50.0,86,30.08,3.0,SE,8.1,-,0.07,Rain,Light Rain,130,2013-04-28 15:51:00
12:18 PM,53.6,51.8,94,30.06,3.0,SE,9.2,-,0.03,Rain,Light Rain,140,2013-04-28 16:18:00
12:51 PM,54.0,51.1,90,30.06,3.0,SSE,9.2,-,0.04,Rain,Light Rain,150,2013-04-28 16:51:00
1:51 PM,55.9,52.0,87,30.04,4.0,SE,11.5,-,0.01,Rain,Light Rain,140,2013-04-28 17:51:00
2:39 PM,55.4,51.8,88,29.99,7.0,SE,12.7,-,0.00,,Overcast,130,2013-04-28 18:39:00
2:51 PM,55.9,52.0,87,30.02,8.0,SE,13.8,-,0.00,,Overcast,130,2013-04-28 18:51:00
3:51 PM,57.0,52.0,83,29.99,9.0,SE,11.5,-,0.00,Rain,Light Rain,130,2013-04-28 19:51:00
4:38 PM,57.2,53.6,88,29.96,10.0,SE,10.4,-,0.00,,Overcast,130,2013-04-28 20:38:00
4:51 PM,57.9,53.1,84,29.98,9.0,SE,10.4,-,0.00,,Overcast,130,2013-04-28 20:51:00
5:51 PM,60.1,52.0,75,29.96,9.0,SE,9.2,-,N/A,,Mostly Cloudy,130,2013-04-28 21:51:00
6:28 PM,60.8,51.8,72,29.94,4.0,SE,9.2,-,0.00,Rain,Light Rain,130,2013-04-28 22:28:00
6:51 PM,57.9,52.0,81,29.95,7.0,ESE,11.5,-,0.01,,Overcast,120,2013-04-28 22:51:00
7:51 PM,55.9,51.1,84,29.96,9.0,ESE,8.1,-,0.00,,Overcast,120,2013-04-28 23:51:00
8:11 PM,55.4,50.0,82,29.95,6.0,East,5.8,-,0.01,Rain,Light Rain,100,2013-04-29 00:11:00
8:51 PM,55.0,50.0,83,29.98,6.0,ESE,8.1,-,0.03,Rain,Light Rain,110,2013-04-29 00:51:00
9:51 PM,55.0,50.0,83,29.98,10.0,ESE,6.9,-,0.01,,Overcast,110,2013-04-29 01:51:00
10:51 PM,54.0,48.0,80,29.98,10.0,ESE,9.2,-,N/A,,Mostly Cloudy,120,2013-04-29 02:51:00
11:51 PM,54.0,48.0,80,29.97,10.0,SE,6.9,-,N/A,,Mostly Cloudy,130,2013-04-29 03:51:00